Flag for U.S.A. Weather past 2 weeks in Provo, Utah, U.S.A.

Now
52 °F

Clear.


Feels Like: 49 °F
Forecast: 46 / 70 °F
Wind: 7 mph from Southeast

Location: Provo Municipal

Current Time: Oct 24, 2014 at 1:26:25 AM

Latest Report: Oct 24, 2014 at 12:55 AM


Visibility: 10 mi

Pressure: 30.13 "Hg

Humidity: 44%

Dew point: 30 °F

Location of ProvoLocation

Historic Weather in Provo — Graph

°F

Provo temperature yesterday

Maximum temperature yesterday: 72 °F (at 2:57 PM)
Minimum temperature yesterday: 37 °F (at 4:55 AM)
Average temperature yesterday: 50 °F

Past Weeks' High & Low Weather Summary

 TemperatureHumidityPressure
High75 °F (Oct 20, 3:51 PM)100% (Oct 16, 9:54 AM)30.35 "Hg (Oct 16, 9:54 AM)
Low36 °F (Oct 13, 3:35 AM)23% (Oct 23, 3:48 PM)29.89 "Hg (Oct 15, 3:51 PM)
Average51 °F58%30.09 "Hg
* Reported Oct 9 12:35 AM — Oct 24 12:15 AM, Provo, Weather by CustomWeather, © 2014

Note: Actual official high and low records may vary slightly from our data, if they occured in-between our weather recording intervals... More about our weather records

Advertising

Provo weather history for previous 24 hours

 ConditionsComfort  
Time TempWeatherWind HumidityBarometerVisibility
12:15 AM
Oct 24
54 °FClear.8 mph41%30.12 "Hg10 mi
11:55 PM
Oct 23
52 °FClear.9 mph44%30.13 "Hg10 mi
11:35 PM52 °FClear.13 mph50%30.12 "Hg10 mi
11:15 PM55 °FClear.5 mph44%30.12 "Hg10 mi
10:55 PM54 °FClear.10 mph51%30.11 "Hg10 mi
10:35 PM54 °FClear.7 mph51%30.10 "Hg10 mi
10:15 PM55 °FClear.No wind44%30.10 "Hg10 mi
9:55 PM55 °FClear.5 mph44%30.10 "Hg10 mi
9:35 PM55 °FClear.6 mph55%30.10 "Hg10 mi
9:15 PM55 °FClear.No wind59%30.10 "Hg10 mi
8:49 PM54 °FPartly cloudy.No wind58%30.09 "Hg15 mi
7:57 PM57 °FPartly cloudy.No wind51%30.09 "Hg15 mi
6:56 PM61 °FBroken clouds.No wind42%30.08 "Hg15 mi
5:49 PM66 °FBroken clouds.5 mph37%30.08 "Hg15 mi
4:48 PM72 °FBroken clouds.No wind27%30.08 "Hg15 mi
3:48 PM72 °FScattered clouds.3 mph23%30.08 "Hg10 mi
2:57 PM72 °FScattered clouds.No wind25%30.09 "Hg10 mi
1:49 PM70 °FScattered clouds.No wind29%30.12 "Hg10 mi
12:49 PM66 °FScattered clouds.3 mph30%30.15 "Hg10 mi
11:48 AM57 °FScattered clouds.No wind44%30.18 "Hg10 mi
10:47 AM57 °FScattered clouds.5 mph36%30.20 "Hg10 mi
9:55 AM50 °FScattered clouds.6 mph54%30.21 "Hg10 mi
8:03 AM45 °FSandstorm.9 mph53%30.19 "Hg10 mi
7:35 AM37 °FClear.No wind70%30.18 "Hg10 mi
6:55 AM39 °FClear.8 mph65%30.17 "Hg10 mi
6:47 AM37 °FClear.3 mph70%30.17 "Hg10 mi
6:35 AM39 °FClear.3 mph65%30.17 "Hg10 mi
6:15 AM41 °FClear.9 mph61%30.17 "Hg10 mi
5:55 AM41 °FClear.7 mph66%30.17 "Hg10 mi
5:35 AM41 °FClear.No wind61%30.17 "Hg10 mi
5:15 AM39 °FClear.5 mph70%30.18 "Hg10 mi
4:55 AM37 °FClear.6 mph70%30.18 "Hg10 mi
4:35 AM43 °FClear.5 mph57%30.18 "Hg10 mi
4:15 AM43 °FClear.No wind61%30.18 "Hg10 mi
3:55 AM39 °FClear.No wind70%30.19 "Hg10 mi
3:35 AM43 °FClear.No wind61%30.19 "Hg10 mi
3:15 AM43 °FClear.No wind66%30.19 "Hg10 mi
2:55 AM43 °FClear.7 mph61%30.19 "Hg10 mi
2:35 AM39 °FClear.7 mph70%30.19 "Hg10 mi
1:55 AM41 °FClear.7 mph66%30.19 "Hg10 mi
1:35 AM41 °FClear.No wind66%30.19 "Hg10 mi
1:15 AM43 °FClear.No wind66%30.19 "Hg10 mi
Weather by CustomWeather, © 2014

See weather overviewHow to use our weather pages